Flag for U.S.A. Weather past 2 weeks in Victorville, California, U.S.A.

Now
48 °F

Clear.


Feels Like: 46 °F
Forecast: 47 / 83 °F
Wind: 5 mph from South

Location: George Air Force Base / Victorvi

Current Time: Mar 29, 2015 at 7:40:36 AM

Latest Report: Mar 29, 2015 at 7:15 AM


Visibility: 10 mi

Pressure: 30.13 "Hg

Humidity: 34%

Dew point: 21 °F

Location of VictorvilleLocation

Historic Weather in Victorville — Graph

°F

Victorville temperature yesterday

Maximum temperature yesterday: 88 °F (at 4:35 PM)
Minimum temperature yesterday: 52 °F (at 6:15 AM)
Average temperature yesterday: 69 °F

Past Weeks' High & Low Weather Summary

 TemperatureHumidityPressure
High88 °F (Mar 28, 4:35 PM)82% (Mar 19, 6:55 AM)30.27 "Hg (Mar 19, 6:55 AM)
Low45 °F (Mar 20, 5:55 AM)8% (Mar 20, 4:55 PM)29.93 "Hg (Mar 18, 4:15 PM)
Average63 °F32%30.10 "Hg
* Reported Mar 14 6:15 AM — Mar 29 6:15 AM, Victorville, Weather by CustomWeather, © 2015

Note: Actual official high and low records may vary slightly from our data, if they occured in-between our weather recording intervals... More about our weather records

Advertising

Victorville weather history for previous 24 hours

 ConditionsComfort  
Time TempWeatherWind HumidityBarometerVisibility
6:15 AM
Sun, Mar 29
48 °FClear.5 mph34%30.11 "Hg10 mi
5:55 AM50 °FClear.6 mph32%30.11 "Hg10 mi
5:35 AM52 °FClear.No wind32%30.11 "Hg10 mi
5:15 AM50 °FClear.6 mph32%30.10 "Hg10 mi
4:55 AM52 °FClear.3 mph32%30.10 "Hg10 mi
4:35 AM50 °FClear.3 mph32%30.10 "Hg10 mi
4:15 AM54 °FClear.3 mph30%30.10 "Hg10 mi
3:55 AM52 °FClear.5 mph30%30.10 "Hg10 mi
3:35 AM52 °FClear.3 mph30%30.10 "Hg10 mi
3:15 AM54 °FClear.3 mph28%30.10 "Hg10 mi
2:55 AM50 °FClear.3 mph32%30.10 "Hg10 mi
2:35 AM52 °FClear.3 mph30%30.10 "Hg10 mi
2:15 AM50 °FClear.3 mph32%30.11 "Hg10 mi
1:55 AM54 °FClear.3 mph28%30.11 "Hg10 mi
1:35 AM54 °FClear.5 mph28%30.12 "Hg10 mi
1:15 AM54 °FClear.6 mph28%30.12 "Hg10 mi
12:55 AM55 °FClear.7 mph26%30.12 "Hg10 mi
12:15 AM55 °FClear.8 mph24%30.12 "Hg10 mi
11:55 PM
Sat, Mar 28
61 °FClear.7 mph20%30.13 "Hg10 mi
11:15 PM61 °FClear.6 mph22%30.12 "Hg10 mi
10:55 PM64 °FClear.3 mph21%30.12 "Hg10 mi
10:15 PM66 °FClear.No wind19%30.11 "Hg10 mi
9:55 PM66 °FClear.5 mph19%30.11 "Hg10 mi
9:15 PM70 °FClear.5 mph16%30.11 "Hg10 mi
8:55 PM70 °FClear.7 mph16%30.10 "Hg10 mi
8:15 PM73 °FClear.8 mph13%30.09 "Hg10 mi
7:55 PM73 °FSunny.9 mph12%30.08 "Hg10 mi
7:35 PM73 °FSunny.7 mph12%30.07 "Hg10 mi
7:15 PM77 °FSunny.9 mph8%30.06 "Hg10 mi
6:55 PM79 °FSunny.14 mph9%30.06 "Hg10 mi
6:15 PM82 °FSunny.13 mph9%30.05 "Hg10 mi
5:55 PM84 °FSunny.13 mph9%30.04 "Hg10 mi
5:15 PM88 °FSunny.12 mph9%30.03 "Hg10 mi
4:55 PM86 °FSunny.No wind9%30.03 "Hg10 mi
4:35 PM88 °FSunny.3 mph8%30.03 "Hg10 mi
4:15 PM86 °FSunny.No wind8%30.04 "Hg10 mi
3:55 PM86 °FSunny.3 mph9%30.04 "Hg10 mi
3:35 PM86 °FSunny.No wind9%30.05 "Hg10 mi
3:15 PM86 °FSunny.3 mph9%30.05 "Hg10 mi
2:55 PM86 °FSunny.5 mph9%30.06 "Hg10 mi
2:15 PM84 °FSunny.No wind10%30.08 "Hg10 mi
1:55 PM84 °FSunny.6 mph10%30.09 "Hg10 mi
1:35 PM84 °FSunny.3 mph10%30.10 "Hg10 mi
1:15 PM82 °FSunny.5 mph11%30.10 "Hg10 mi
12:55 PM82 °FSunny.7 mph12%30.11 "Hg10 mi
12:35 PM82 °FSunny.7 mph12%30.12 "Hg10 mi
12:15 PM81 °FSunny.5 mph14%30.13 "Hg10 mi
11:55 AM79 °FSunny.3 mph13%30.13 "Hg10 mi
11:15 AM77 °FSunny.No wind15%30.14 "Hg10 mi
10:55 AM75 °FSunny.3 mph15%30.15 "Hg10 mi
10:35 AM73 °FSunny.3 mph19%30.15 "Hg10 mi
10:15 AM73 °FSunny.3 mph20%30.16 "Hg10 mi
9:55 AM72 °FSunny.No wind22%30.16 "Hg10 mi
9:35 AM70 °FSunny.3 mph23%30.16 "Hg10 mi
9:15 AM66 °FSunny.3 mph26%30.16 "Hg10 mi
8:55 AM64 °FSunny.No wind28%30.16 "Hg10 mi
8:35 AM63 °FSunny.5 mph30%30.16 "Hg10 mi
8:15 AM61 °FSunny.8 mph31%30.16 "Hg10 mi
7:55 AM57 °FSunny.8 mph36%30.15 "Hg10 mi
7:15 AM54 °FClear.5 mph38%30.14 "Hg10 mi
Weather by CustomWeather, © 2015

See weather overviewHow to use our weather pages